Weather History for Aurora, CO

Change the Weather History Date:

Wednesday, March 20, 2013

  Actual Average Record
Temperature  
Mean Temperature 38 °F -  
Max Temperature 57 °F 53 °F 78 °F (1997)
Min Temperature 19 °F 29 °F 15 °F (2006)
Degree Days  
Heating Degree Days 27    
Moisture  
Dew Point 18 °F    
Average Humidity 52    
Maximum Humidity 86    
Minimum Humidity 18    
Precipitation  
Precipitation 0.00 in - - ()
Sea Level Pressure  
Sea Level Pressure 30.00 in    
Wind  
Wind Speed 6 mph (NW)    
Max Wind Speed 16 mph    
Max Gust Speed 18 mph    
Averages and records for this station are not official NWS values.
T = Trace of Precipitation, MM = Missing Value Source: NWS Daily Summary

Daily Weather History Graph

Daily Weather History Graph

Search for Another Location

Airport:

Trip Planner

Search our weather history database for the weather conditions in past years. The results will help you decide how hot, cold, wet, or windy it might be!

Date:

Astronomy

Mar. 20, 2013 Rise Set
Actual Time 7:01 AM MDT 7:11 PM MDT
Civil Twilight 6:35 AM MDT 7:38 PM MDT
Nautical Twilight 6:03 AM MDT 8:09 PM MDT
Astronomical Twilight 5:31 AM MDT 8:41 PM MDT
Moon 12:49 PM MDT (3/20) 2:42 AM MDT (3/20)
Length of Visible Light 13h 03m
Length of Day
12h 09m
First Quarter, 60% of the Moon is Illuminated
Mar 20
First Quarter
Mar 27
Full
Apr 2
Last Quarter
Apr 10
New
Apr 18
First Quarter

Hourly Weather History & Observations

Time (MDT) Temp. Windchill Dew Point Humidity Pressure Visibility Wind Dir Wind Speed Gust Speed Precip Events Conditions
12:55 AM 24.8 °F 20.5 °F 15.8 °F 69% 30.35 in 25.0 mi NNW 3.5 mph - N/A   Scattered Clouds
1:55 AM 21.2 °F 13.6 °F 15.8 °F 80% 30.30 in 25.0 mi SE 5.8 mph - N/A   Scattered Clouds
2:55 AM 21.2 °F 12.6 °F 15.8 °F 80% 30.27 in 25.0 mi SE 6.9 mph - N/A   Scattered Clouds
3:55 AM 19.4 °F 10.4 °F 15.8 °F 86% 30.25 in 25.0 mi SE 6.9 mph - N/A   Scattered Clouds
4:55 AM 19.4 °F 8.6 °F 15.8 °F 86% 30.20 in 25.0 mi ESE 9.2 mph - N/A   Scattered Clouds
5:55 AM 21.2 °F 10.1 °F 14.0 °F 74% 30.18 in 25.0 mi South 10.4 mph - N/A   Scattered Clouds
6:55 AM 23.0 °F 15.8 °F 14.0 °F 68% 30.17 in 25.0 mi South 5.8 mph - N/A   Mostly Cloudy
7:55 AM 24.8 °F 16.9 °F 14.0 °F 64% 30.17 in 70.0 mi West 6.9 mph - N/A   Mostly Cloudy
8:55 AM 26.6 °F 21.2 °F 17.6 °F 69% 30.17 in 70.0 mi WNW 4.6 mph - N/A   Mostly Cloudy
9:55 AM 32.0 °F 27.5 °F 17.6 °F 55% 30.14 in 70.0 mi West 4.6 mph - N/A   Mostly Cloudy
10:55 AM 39.2 °F - 17.6 °F 42% 30.08 in 70.0 mi Calm Calm - N/A   Mostly Cloudy
11:55 AM 44.6 °F 40.7 °F 17.6 °F 34% 30.02 in 70.0 mi NNE 6.9 mph - N/A   Mostly Cloudy
12:55 PM 50.0 °F - 19.4 °F 30% 29.94 in 70.0 mi ENE 5.8 mph - N/A   Mostly Cloudy
1:55 PM 57.2 °F - 14.0 °F 18% 29.86 in 70.0 mi NE 4.6 mph - N/A   Mostly Cloudy
2:55 PM 57.2 °F - 15.8 °F 20% 29.83 in 70.0 mi NNW 13.8 mph 18.4 mph N/A   Mostly Cloudy
3:55 PM 53.6 °F - 19.4 °F 26% 29.83 in 25.0 mi North 16.1 mph - N/A   Mostly Cloudy
4:55 PM 51.8 °F - 17.6 °F 26% 29.82 in 25.0 mi North 13.8 mph - N/A   Mostly Cloudy
5:55 PM 51.8 °F - 19.4 °F 28% 29.80 in 25.0 mi NNW 8.1 mph - N/A   Mostly Cloudy
6:55 PM 48.2 °F - 21.2 °F 34% 29.80 in 25.0 mi NNW 6.9 mph - N/A   Mostly Cloudy
7:55 PM 42.8 °F 40.1 °F 24.8 °F 49% 29.81 in 25.0 mi WNW 4.6 mph - N/A   Mostly Cloudy
8:55 PM 42.8 °F - 23.0 °F 46% 29.79 in 25.0 mi SSW 1.2 mph - N/A   Mostly Cloudy
9:55 PM 41.0 °F 38.0 °F 23.0 °F 49% 29.76 in 25.0 mi East 4.6 mph - N/A   Scattered Clouds
10:55 PM 35.6 °F 30.7 °F 23.0 °F 60% 29.73 in 25.0 mi SSW 5.8 mph - N/A   Scattered Clouds
11:55 PM 37.4 °F 33.8 °F 23.0 °F 56% 29.70 in 25.0 mi SW 4.6 mph - N/A   Scattered Clouds